Simultaneous Nadir Overpasses (SNOs) Predictions

Prediction of SNOs between NOAA-19 and TERRA Satellite Orbit:

Table of predicted SNOs for the next 14.0 days since TLE Epoch: 11/17/2018
Index Date (NOAA-19) Time (NOAA-19) Lat,Lon (NOAA-19) SZA (NOAA-19 ) Date (TERRA) Time (TERRA) Lat,Lon (TERRA) SZA (TERRA ) Distance(km) Time Diff (sec)
1 11/17/2018 16:16:42 77.74, -45.55 97.63 11/17/2018 16:17:42 77.73, -45.52 97.64 1.52 60
2 11/17/2018 17:07:40 -77.69, 122.00 82.40 11/17/2018 17:07:10 -77.70, 121.98 82.40 1.30 30
3 11/19/2018 21:50:12 -77.76, 51.05 81.84 11/19/2018 21:51:24 -77.76, 51.20 81.81 3.50 72
4 11/19/2018 22:41:13 77.72,-141.47 98.14 11/19/2018 22:40:51 77.70,-141.42 98.13 2.09 22
5 11/22/2018 03:23:54 78.12, 145.72 98.84 11/22/2018 03:25:00 77.99, 148.78 98.96 71.95 66
6 11/22/2018 04:14:42 -77.72, -44.79 81.37 11/22/2018 04:14:33 -77.74, -44.70 81.35 2.71 9
7 11/24/2018 09:48:15 77.72, 51.93 99.09 11/24/2018 09:48:14 77.74, 51.89 99.11 2.41 1
8 11/26/2018 15:21:43 -77.73, 148.57 80.48 11/26/2018 15:21:57 -77.73, 148.44 80.49 3.10 14
9 11/26/2018 16:12:35 77.27, -41.83 99.28 11/26/2018 16:11:31 77.35, -45.51 99.05 90.33 64
10 11/28/2018 20:55:18 77.77,-114.95 99.94 11/28/2018 20:55:38 77.73,-114.97 99.90 4.15 20
11 11/28/2018 21:46:13 -77.70, 52.70 80.10 11/28/2018 21:45:06 -77.71, 52.56 80.12 3.47 67




NCC Satellite Simultaneous Nadir Overpasses (SNOs) Prediction Service
